Greenville, ME

6:59 AM EDT on March 27, 2017 (GMT -0400)
Greenville

Weather History for KGNR - March, 2012

Change the Weather History Date:

Tuesday, March 13, 2012

  Actual Average (KMLT) Record (KMLT)
Temperature  
Mean Temperature 36 °F -  
Max Temperature 43 °F 32 °F 58 °F (1946)
Min Temperature 30 °F 12 °F -8 °F (1984)
Degree Days  
Heating Degree Days 29    
Moisture  
Dew Point 28 °F    
Average Humidity 71    
Maximum Humidity 100    
Minimum Humidity 43    
Precipitation  
Precipitation 0.21 in - - ()
Sea Level Pressure  
Sea Level Pressure 30.01 in    
Wind  
Wind Speed 5 mph (ESE)    
Max Wind Speed 14 mph    
Max Gust Speed 23 mph    
Averages and records for this station are not official NWS values.
T = Trace of Precipitation, MM = Missing Value Source: NWS Daily Summary

Daily Weather History Graph

Daily Weather History Graph

Search for Another Location

Airport or City:

Trip Planner

Search our weather history database for the weather conditions in past years. The results will help you decide how hot, cold, wet, or windy it might be!

Date:

Astronomy

Mar. 13, 2012 Rise Set
Actual Time 6:53 AM EDT 6:42 PM EDT
Civil Twilight 6:24 AM EDT 7:11 PM EDT
Nautical Twilight 5:49 AM EDT 7:46 PM EDT
Astronomical Twilight 5:15 AM EDT 8:21 PM EDT
Moon 12:28 AM EDT (3/13) 9:44 AM EDT (3/13)
Length of Visible Light 12h 47m
Length of Day
11h 48m
Waning Gibbous, 66% of the Moon is Illuminated
Mar 13
Waning Gibbous
Mar 14
Last Quarter
Mar 22
New
Mar 30
First Quarter
Apr 6
Full

Hourly Weather History & Observations

Time (EDT) Temp. Windchill Dew Point Humidity Pressure Visibility Wind Dir Wind Speed Gust Speed Precip Events Conditions
12:56 AM 39.0 °F - 25.0 °F 57% 30.12 in - Calm Calm - N/A   Unknown
1:56 AM 39.0 °F 33.4 °F 25.0 °F 57% 30.10 in - East 8.1 mph - N/A   Unknown
2:56 AM 39.0 °F - 23.0 °F 53% 30.09 in - Calm Calm - N/A   Unknown
3:56 AM 42.1 °F 38.4 °F 23.0 °F 47% 30.06 in - ESE 5.8 mph - N/A   Unknown
4:56 AM 39.9 °F - 23.0 °F 51% 30.06 in - Calm Calm - N/A   Unknown
5:56 AM 39.9 °F 35.8 °F 19.9 °F 45% 30.06 in - SE 5.8 mph - N/A   Unknown
6:56 AM 39.0 °F 34.8 °F 19.9 °F 46% 30.04 in - ESE 5.8 mph - N/A   Unknown
7:56 AM 41.0 °F 39.0 °F 19.9 °F 43% 30.03 in - SE 3.5 mph - N/A   Unknown
8:56 AM 39.9 °F 35.8 °F 21.0 °F 47% 30.02 in - SE 5.8 mph - N/A   Unknown
9:56 AM 41.0 °F 35.8 °F 24.1 °F 51% 29.99 in - SE 8.1 mph - N/A   Unknown
10:56 AM 42.1 °F 38.4 °F 26.1 °F 53% 29.98 in - SE 5.8 mph - N/A   Unknown
11:56 AM 42.1 °F 35.7 °F 26.1 °F 53% 29.94 in - SE 11.5 mph 21.9 mph N/A   Unknown
12:56 PM 42.1 °F 36.6 °F 26.1 °F 53% 29.90 in - SE 9.2 mph 23.0 mph N/A   Unknown
1:56 PM 39.9 °F 35.8 °F 33.1 °F 77% 29.93 in - ESE 5.8 mph - 0.02 in   Unknown
2:56 PM 37.0 °F 28.5 °F 35.1 °F 93% 29.93 in - East 13.8 mph - 0.16 in   Unknown
3:56 PM 39.0 °F 33.4 °F 37.0 °F 93% 29.91 in - ESE 8.1 mph - 0.02 in   Unknown
4:56 PM 37.0 °F 30.4 °F 36.0 °F 96% 29.93 in - ESE 9.2 mph - 0.01 in   Unknown
5:56 PM 35.1 °F 27.4 °F 35.1 °F 100% 29.96 in - ESE 10.4 mph - N/A   Unknown
6:56 PM 35.1 °F 26.4 °F 34.0 °F 96% 29.97 in - East 12.7 mph - N/A   Unknown
7:56 PM 34.0 °F 25.5 °F 34.0 °F 100% 29.99 in - East 11.5 mph - N/A   Unknown
8:56 PM 33.1 °F 25.5 °F 33.1 °F 100% 30.01 in - ESE 9.2 mph - N/A   Unknown
9:56 PM 32.0 °F 24.8 °F 32.0 °F 100% 30.03 in - ESE 8.1 mph - N/A   Unknown
10:56 PM 30.9 °F 25.2 °F 30.9 °F 100% 30.03 in - SE 5.8 mph - N/A   Unknown
11:56 PM 30.9 °F 25.2 °F 30.9 °F 100% 30.05 in - East 5.8 mph - N/A   Unknown